Погода в Бугдатепе

Россия / Республика Дагестан     41°45′46″N   48°23′43″E
темп.,
°C
ветер,
м/с
пор.,
м/с
влажн.,
%
обл.,
%
осадки,
мм/ч
давл.,
гПа
погр.,
м
11 мая, вт
вт1100:00+8юз34597 0.0 102150
03:00+7юз45605 0.0 102066
06:00+10ююз34595 0.0 1020103
09:00+15вюв57465 0.0 10191345
12:00+16в664918 0.0 10171432
15:00+15в65531 0.0 1016973
18:00+12в34710 0.0 1016275
21:00+8зсз22890 0.0 101616
12 мая, ср
ср1200:00+8з32870 0.0 101527
03:00+8з34840 0.0 101553
06:00+11зюз24750 0.0 1016130
09:00+17с33560 0.0 1015738
12:00+17ссв53620 0.0 1015817
15:00+18ссв32650 0.0 1015658
18:00+14с23830 0.0 1016197
21:00+11зюз11930 0.0 101611
13 мая, чт
чт1300:00+11юз11920 0.0 101610
03:00+11ююв11920 0.0 101510
06:00+14ююз24850 0.0 1015116
09:00+20вюв44614 0.0 1015567
12:00+22в43560 0.0 1014650
15:00+21в43620 0.0 1014456
18:00+17в23770 0.0 1014115
21:00+14ююз11890 0.0 101510
14 мая, пт
пт1400:00+14ююв11894 0.0 101410
03:00+13ююв11875 0.0 101410
06:00+18ю00675 0.0 101433
09:00+23в33576 0.0 1014375
12:00+26вюв46495 0.0 1014660
15:00+25вюв610480 0.0 1013549
18:00+21юв376375 0.0 1014208
21:00+16ю117291 0.0 101411
15 мая, сб
сб1500:00+17ююз227092 0.0 101311
03:00+17ю226499 0.0 101311
06:00+20ююз226010 0.0 101330
09:00+25вюв344234 0.0 1013415
12:00+28вюв692993 0.0 1013774
15:00+27юв59291 0.0 1013683
18:00+21вюв22531 0.0 101419
21:00+16зюз115299 0.0 101511